RYR4239 LFBO-LEPA

Flight info

Callsign RYR4239
Flight time 1h 0m
Altitude 35000
Route RIBOU DCT ROCAN DCT IBRAP N13 LORES
Aircraft B738/M-SDE3FGILRWY/SB1

Departure

Time 2026-05-01 10:17
Airport Toulouse-Blagnac Airport (LFBO)

Arrival

Time 2026-05-01 11:17
Airport Palma de Mallorca Airport (LEPA)
Time Latitude Longitude Altitude Speed Heading
2026-05-01 09:56 43.62868 1.37593 493 ft 0 kts 53°
2026-05-01 10:09 43.62860 1.37580 483 ft 4 kts 52°
2026-05-01 10:09 43.62842 1.37554 487 ft 4 kts 21°
2026-05-01 10:09 43.62820 1.37554 482 ft 4 kts 323°
2026-05-01 10:09 43.62808 1.37571 482 ft 1 kts 306°
2026-05-01 10:10 43.62806 1.37574 482 ft 0 kts 306°
2026-05-01 10:11 43.62809 1.37568 493 ft 2 kts 306°
2026-05-01 10:12 43.62825 1.37534 486 ft 6 kts 293°
2026-05-01 10:12 43.62818 1.37455 490 ft 11 kts 249°
2026-05-01 10:12 43.62878 1.37275 493 ft 12 kts 322°
2026-05-01 10:13 43.62894 1.37178 493 ft 11 kts 234°
2026-05-01 10:13 43.62846 1.37092 489 ft 11 kts 235°
2026-05-01 10:13 43.62852 1.36995 487 ft 11 kts 311°
2026-05-01 10:14 43.63020 1.36818 493 ft 20 kts 322°
2026-05-01 10:14 43.63142 1.36692 489 ft 24 kts 323°
2026-05-01 10:14 43.63286 1.36543 490 ft 28 kts 323°
2026-05-01 10:14 43.63441 1.36383 486 ft 27 kts 323°
2026-05-01 10:15 43.63588 1.36230 491 ft 25 kts 323°
2026-05-01 10:15 43.63724 1.36088 485 ft 24 kts 323°
2026-05-01 10:15 43.63814 1.35981 488 ft 12 kts 295°
2026-05-01 10:15 43.63787 1.35881 484 ft 12 kts 233°
2026-05-01 10:16 43.63737 1.35796 488 ft 11 kts 214°
2026-05-01 10:16 43.63662 1.35840 490 ft 20 kts 143°
2026-05-01 10:16 43.62707 1.36837 490 ft 143 kts 143°
2026-05-01 10:17 43.61841 1.37712 914 ft 158 kts 141°
2026-05-01 10:17 43.59996 1.39603 1994 ft 186 kts 142°
2026-05-01 10:17 43.58904 1.40667 2387 ft 197 kts 142°
2026-05-01 10:18 43.56643 1.42896 3624 ft 202 kts 142°
2026-05-01 10:18 43.55503 1.44074 4195 ft 209 kts 141°
2026-05-01 10:18 43.54324 1.45299 4742 ft 217 kts 142°
2026-05-01 10:19 43.52932 1.46390 4938 ft 245 kts 156°
2026-05-01 10:19 43.51294 1.47296 5352 ft 260 kts 157°
2026-05-01 10:19 43.49587 1.48231 5957 ft 268 kts 157°
2026-05-01 10:20 43.46055 1.50190 7335 ft 277 kts 158°
2026-05-01 10:20 43.44271 1.51191 8147 ft 277 kts 158°
2026-05-01 10:20 43.42482 1.52201 8974 ft 279 kts 158°
2026-05-01 10:20 43.40675 1.53225 9752 ft 283 kts 158°
2026-05-01 10:21 43.38848 1.54263 10481 ft 288 kts 158°
2026-05-01 10:21 43.34870 1.56527 11133 ft 326 kts 159°
2026-05-01 10:21 43.32762 1.57730 11875 ft 330 kts 159°
2026-05-01 10:22 43.28477 1.60171 13435 ft 338 kts 159°
2026-05-01 10:22 43.24075 1.62679 14872 ft 347 kts 159°
2026-05-01 10:23 43.21841 1.63950 15647 ft 350 kts 159°
2026-05-01 10:23 43.17296 1.66534 17163 ft 356 kts 159°
2026-05-01 10:23 43.14990 1.67843 17861 ft 361 kts 159°
2026-05-01 10:24 43.10268 1.70518 19093 ft 373 kts 159°
2026-05-01 10:24 43.05418 1.73264 20271 ft 382 kts 159°
2026-05-01 10:25 43.00461 1.76066 21474 ft 389 kts 160°
2026-05-01 10:25 42.95378 1.78932 22526 ft 400 kts 160°
2026-05-01 10:26 42.92789 1.80390 23120 ft 404 kts 160°
2026-05-01 10:26 42.90179 1.81860 23683 ft 408 kts 160°
2026-05-01 10:26 42.84886 1.84835 24649 ft 414 kts 160°
2026-05-01 10:27 42.79518 1.87847 25606 ft 419 kts 160°
2026-05-01 10:27 42.74111 1.90877 26617 ft 422 kts 161°
2026-05-01 10:28 42.71382 1.92403 27016 ft 426 kts 160°
2026-05-01 10:28 42.65822 1.95352 27865 ft 430 kts 166°
2026-05-01 10:28 42.62954 1.96430 28437 ft 427 kts 168°
2026-05-01 10:29 42.57232 1.98379 29708 ft 421 kts 169°
2026-05-01 10:29 42.54411 1.99350 30377 ft 417 kts 169°
2026-05-01 10:30 42.48809 2.01329 31283 ft 416 kts 168°
2026-05-01 10:30 42.43214 2.03337 32198 ft 414 kts 168°
2026-05-01 10:31 42.37640 2.05333 32927 ft 416 kts 168°
2026-05-01 10:31 42.32979 2.06995 33274 ft 418 kts 168°
2026-05-01 10:32 42.24609 2.09968 33263 ft 410 kts 168°
2026-05-01 10:33 42.13541 2.13884 33267 ft 412 kts 168°
2026-05-01 10:34 42.05215 2.16822 33267 ft 413 kts 168°
2026-05-01 10:34 41.99660 2.18779 33258 ft 413 kts 168°
2026-05-01 10:35 41.91326 2.21707 33254 ft 412 kts 168°
2026-05-01 10:35 41.85782 2.23652 33254 ft 412 kts 168°
2026-05-01 10:36 41.77469 2.26560 33253 ft 412 kts 168°
2026-05-01 10:37 41.71919 2.28498 33241 ft 413 kts 168°
2026-05-01 10:37 41.63581 2.31404 33236 ft 413 kts 168°
2026-05-01 10:38 41.58025 2.33337 33244 ft 413 kts 168°
2026-05-01 10:38 41.52462 2.35269 33242 ft 413 kts 169°
2026-05-01 10:39 41.46901 2.37197 33238 ft 412 kts 169°
2026-05-01 10:39 41.41357 2.39116 33240 ft 412 kts 168°
2026-05-01 10:40 41.35812 2.41032 33240 ft 411 kts 168°
2026-05-01 10:40 41.30277 2.42941 33234 ft 411 kts 169°
2026-05-01 10:41 41.24778 2.44835 32861 ft 403 kts 169°
2026-05-01 10:41 41.19471 2.46662 32337 ft 392 kts 169°
2026-05-01 10:42 41.16835 2.47567 32084 ft 390 kts 169°
2026-05-01 10:42 41.14214 2.48465 31833 ft 388 kts 169°
2026-05-01 10:42 41.11610 2.49357 31575 ft 384 kts 169°
2026-05-01 10:42 41.09035 2.50239 31273 ft 380 kts 168°
2026-05-01 10:43 41.06479 2.51113 30932 ft 378 kts 169°
2026-05-01 10:43 41.03909 2.51991 30589 ft 375 kts 169°
2026-05-01 10:43 41.01419 2.52829 30237 ft 373 kts 170°
2026-05-01 10:43 40.98868 2.53531 29468 ft 378 kts 172°
2026-05-01 10:44 40.96220 2.54159 28204 ft 397 kts 173°
2026-05-01 10:44 40.93461 2.54780 27486 ft 402 kts 172°
2026-05-01 10:44 40.90723 2.55402 27098 ft 398 kts 173°
2026-05-01 10:44 40.87997 2.56031 26530 ft 398 kts 172°
2026-05-01 10:45 40.85266 2.56670 26018 ft 398 kts 172°
2026-05-01 10:45 40.82552 2.57313 25598 ft 395 kts 171°
2026-05-01 10:45 40.79859 2.57955 25166 ft 393 kts 171°
2026-05-01 10:45 40.77177 2.58596 24720 ft 391 kts 171°
2026-05-01 10:46 40.74504 2.59236 24277 ft 390 kts 170°
2026-05-01 10:46 40.71841 2.59873 23867 ft 388 kts 170°
2026-05-01 10:46 40.69190 2.60507 23394 ft 386 kts 170°
2026-05-01 10:46 40.66557 2.61137 22947 ft 383 kts 170°
2026-05-01 10:47 40.63948 2.61760 22522 ft 380 kts 170°
2026-05-01 10:47 40.61354 2.62379 22078 ft 378 kts 171°
2026-05-01 10:47 40.58776 2.62994 21665 ft 375 kts 170°
2026-05-01 10:47 40.56222 2.63602 21262 ft 372 kts 171°
2026-05-01 10:48 40.53686 2.64206 20853 ft 370 kts 170°
2026-05-01 10:48 40.51165 2.64805 20471 ft 367 kts 171°
2026-05-01 10:48 40.48680 2.65396 20251 ft 359 kts 171°
2026-05-01 10:48 40.46243 2.65975 19997 ft 353 kts 171°
2026-05-01 10:49 40.43849 2.66544 19742 ft 347 kts 171°
2026-05-01 10:49 40.41493 2.67104 19503 ft 341 kts 171°
2026-05-01 10:49 40.39171 2.67655 19253 ft 337 kts 171°
2026-05-01 10:49 40.36913 2.68189 19020 ft 332 kts 171°
2026-05-01 10:50 40.34631 2.68729 18819 ft 326 kts 171°
2026-05-01 10:50 40.32414 2.69253 18560 ft 323 kts 171°
2026-05-01 10:50 40.30207 2.69773 18231 ft 321 kts 171°
2026-05-01 10:50 40.28015 2.70290 17901 ft 319 kts 171°
2026-05-01 10:51 40.25838 2.70804 17573 ft 317 kts 171°
2026-05-01 10:51 40.23698 2.71308 17258 ft 315 kts 171°
2026-05-01 10:51 40.21517 2.71822 16939 ft 313 kts 171°
2026-05-01 10:51 40.19378 2.72326 16625 ft 312 kts 172°
2026-05-01 10:52 40.17247 2.72828 16317 ft 310 kts 172°
2026-05-01 10:52 40.15128 2.73326 16010 ft 309 kts 171°
2026-05-01 10:52 40.13023 2.73820 15704 ft 307 kts 171°
2026-05-01 10:52 40.10924 2.74314 15399 ft 306 kts 171°
2026-05-01 10:53 40.08831 2.74805 15092 ft 305 kts 171°
2026-05-01 10:53 40.06746 2.75294 14780 ft 304 kts 171°
2026-05-01 10:53 40.04668 2.75782 14482 ft 303 kts 171°
2026-05-01 10:53 40.02625 2.76260 14182 ft 302 kts 171°
2026-05-01 10:54 40.00534 2.76750 13862 ft 301 kts 171°
2026-05-01 10:54 39.98499 2.77226 13522 ft 300 kts 171°
2026-05-01 10:54 39.96448 2.77707 13209 ft 299 kts 171°
2026-05-01 10:54 39.94410 2.78184 12899 ft 297 kts 171°
2026-05-01 10:55 39.92381 2.78658 12585 ft 295 kts 171°
2026-05-01 10:55 39.90365 2.79129 12282 ft 293 kts 171°
2026-05-01 10:55 39.88363 2.79596 11986 ft 292 kts 171°
2026-05-01 10:55 39.86371 2.80060 11694 ft 291 kts 171°
2026-05-01 10:56 39.84379 2.80525 11405 ft 290 kts 171°
2026-05-01 10:56 39.82395 2.80987 11132 ft 289 kts 171°
2026-05-01 10:56 39.80442 2.81442 11006 ft 281 kts 171°
2026-05-01 10:56 39.78533 2.81489 10860 ft 272 kts 194°
2026-05-01 10:57 39.76833 2.80444 10648 ft 267 kts 217°
2026-05-01 10:57 39.75587 2.78724 10421 ft 265 kts 234°
2026-05-01 10:57 39.74555 2.76754 10168 ft 263 kts 236°
2026-05-01 10:57 39.73536 2.74783 9892 ft 262 kts 235°
2026-05-01 10:58 39.72516 2.72825 9608 ft 261 kts 235°
2026-05-01 10:58 39.71497 2.70881 9344 ft 260 kts 235°
2026-05-01 10:58 39.70481 2.68948 9088 ft 258 kts 234°
2026-05-01 10:58 39.69472 2.67032 8690 ft 258 kts 234°
2026-05-01 10:59 39.68462 2.65117 8329 ft 256 kts 235°
2026-05-01 10:59 39.67455 2.63210 7926 ft 257 kts 234°
2026-05-01 10:59 39.66309 2.61445 7522 ft 256 kts 222°
2026-05-01 10:59 39.65007 2.59874 7153 ft 255 kts 222°
2026-05-01 11:00 39.63718 2.58306 6823 ft 252 kts 222°
2026-05-01 11:00 39.62454 2.56749 6302 ft 251 kts 221°
2026-05-01 11:00 39.61191 2.55167 5731 ft 253 kts 221°
2026-05-01 11:00 39.59928 2.53575 5276 ft 252 kts 222°
2026-05-01 11:01 39.58677 2.52002 4851 ft 248 kts 222°
2026-05-01 11:01 39.57456 2.50492 4562 ft 237 kts 219°
2026-05-01 11:01 39.56047 2.49542 4243 ft 224 kts 186°
2026-05-01 11:01 39.54575 2.49730 3995 ft 207 kts 158°
2026-05-01 11:02 39.53283 2.50438 3760 ft 197 kts 152°
2026-05-01 11:02 39.52047 2.51170 3455 ft 195 kts 152°
2026-05-01 11:02 39.50811 2.51903 3135 ft 196 kts 152°
2026-05-01 11:02 39.49578 2.52639 2791 ft 195 kts 151°
2026-05-01 11:03 39.48544 2.53697 2448 ft 188 kts 118°
2026-05-01 11:03 39.48222 2.55264 2238 ft 177 kts 94°
2026-05-01 11:03 39.48188 2.56810 2081 ft 167 kts 81°
2026-05-01 11:03 39.48673 2.58137 1975 ft 165 kts 58°
2026-05-01 11:04 39.49257 2.59427 1836 ft 166 kts 61°
2026-05-01 11:04 39.49845 2.60707 1737 ft 166 kts 60°
2026-05-01 11:04 39.50449 2.61994 1600 ft 167 kts 59°
2026-05-01 11:04 39.51036 2.63241 1401 ft 158 kts 60°
2026-05-01 11:05 39.51584 2.64408 1214 ft 149 kts 60°
2026-05-01 11:05 39.52116 2.65540 1007 ft 145 kts 60°
2026-05-01 11:05 39.52638 2.66653 818 ft 145 kts 59°
2026-05-01 11:05 39.53159 2.67760 646 ft 143 kts 60°
2026-05-01 11:06 39.53664 2.68833 421 ft 135 kts 60°
2026-05-01 11:06 39.54131 2.69835 247 ft 127 kts 59°
2026-05-01 11:06 39.54612 2.70845 110 ft 137 kts 59°
2026-05-01 11:07 39.55623 2.72971 548 ft 147 kts 60°
2026-05-01 11:07 39.56225 2.74165 1277 ft 165 kts 53°
2026-05-01 11:07 39.57162 2.75126 1994 ft 183 kts 30°
2026-05-01 11:07 39.58304 2.75914 2387 ft 189 kts 31°
2026-05-01 11:08 39.59458 2.76722 2577 ft 187 kts 31°
2026-05-01 11:08 39.60600 2.77515 2803 ft 188 kts 29°
2026-05-01 11:08 39.63120 2.77034 3027 ft 217 kts 316°
2026-05-01 11:09 39.63875 2.75274 2988 ft 232 kts 281°
2026-05-01 11:09 39.63776 2.73211 3006 ft 231 kts 249°
2026-05-01 11:09 39.63133 2.71335 2991 ft 225 kts 243°
2026-05-01 11:10 39.61714 2.67729 3000 ft 225 kts 235°
2026-05-01 11:10 39.60798 2.66095 3007 ft 224 kts 231°
2026-05-01 11:10 39.59883 2.64492 3003 ft 224 kts 232°
2026-05-01 11:10 39.58937 2.62843 3020 ft 226 kts 231°
2026-05-01 11:11 39.57990 2.61191 2961 ft 229 kts 232°
2026-05-01 11:11 39.57059 2.59564 2817 ft 226 kts 232°
2026-05-01 11:11 39.56123 2.57925 2689 ft 223 kts 232°
2026-05-01 11:11 39.55222 2.56336 2565 ft 221 kts 232°
2026-05-01 11:12 39.54304 2.54731 2416 ft 222 kts 232°
2026-05-01 11:12 39.53307 2.53202 2305 ft 223 kts 215°
2026-05-01 11:12 39.51930 2.52494 2200 ft 208 kts 179°
2026-05-01 11:12 39.50601 2.52927 2051 ft 193 kts 142°
2026-05-01 11:13 39.49624 2.54053 2015 ft 187 kts 133°
2026-05-01 11:13 39.48724 2.55266 1993 ft 185 kts 124°
2026-05-01 11:13 39.48396 2.56778 1993 ft 173 kts 78°
2026-05-01 11:13 39.48826 2.58175 2001 ft 164 kts 65°
2026-05-01 11:14 39.49306 2.59478 1987 ft 155 kts 63°
2026-05-01 11:14 39.49829 2.60669 1857 ft 147 kts 60°
2026-05-01 11:14 39.50347 2.61777 1646 ft 141 kts 60°
2026-05-01 11:14 39.50860 2.62869 1465 ft 144 kts 60°
2026-05-01 11:15 39.51384 2.63984 1279 ft 145 kts 60°
2026-05-01 11:15 39.51899 2.65078 1081 ft 146 kts 60°
2026-05-01 11:15 39.52431 2.66211 891 ft 145 kts 60°
2026-05-01 11:15 39.52955 2.67322 729 ft 144 kts 60°
2026-05-01 11:16 39.53473 2.68422 575 ft 142 kts 60°
2026-05-01 11:16 39.53986 2.69514 332 ft 143 kts 60°
2026-05-01 11:16 39.54492 2.70602 153 ft 139 kts 60°
2026-05-01 11:16 39.54829 2.71307 52 ft 139 kts 60°
2026-05-01 11:17 39.55291 2.72286 36 ft 111 kts 59°
2026-05-01 11:17 39.55618 2.72977 37 ft 56 kts 58°
2026-05-01 11:17 39.55717 2.73331 37 ft 20 kts 88°
2026-05-01 11:17 39.55721 2.73473 37 ft 14 kts 88°
2026-05-01 11:18 39.55692 2.73538 37 ft 9 kts 178°
2026-05-01 11:18 39.55656 2.73512 37 ft 9 kts 213°
2026-05-01 11:18 39.55599 2.73518 37 ft 9 kts 154°
2026-05-01 11:18 39.55541 2.73564 37 ft 11 kts 149°
2026-05-01 11:19 39.55465 2.73623 37 ft 14 kts 149°
2026-05-01 11:19 39.55374 2.73694 37 ft 17 kts 148°
2026-05-01 11:19 39.55270 2.73777 37 ft 19 kts 148°
2026-05-01 11:19 39.55183 2.73813 37 ft 12 kts 216°
2026-05-01 11:20 39.55133 2.73782 37 ft 9 kts 157°
2026-05-01 11:20 39.55088 2.73779 36 ft 7 kts 252°
2026-05-01 11:20 39.55065 2.73715 37 ft 8 kts 239°
2026-05-01 11:20 39.55053 2.73687 37 ft 0 kts 239°